EN

Hourly Weather Lagodekhi

Today, 26 July, Monday

Time Temperature Precipitation Wind Pressure Humidity
00:00 +24°C° 0 mm 1 mps 701 mmHg 73%
01:00 +24°C° 0 mm 1 mps 701 mmHg 74%
02:00 +24°C° 0 mm 1 mps 701 mmHg 75%
03:00 +21°C° 0 mm 0 mps 701 mmHg 76%
04:00 +22°C° 0 mm 0 mps 702 mmHg 75%
05:00 +22°C° 0 mm 0 mps 702 mmHg 75%
06:00 +23°C° 0 mm 0 mps 702 mmHg 74%
07:00 +26°C° 0 mm 1 mps 702 mmHg 69%
08:00 +28°C° 0 mm 1 mps 702 mmHg 64%
09:00 +29°C° 0 mm 2 mps 702 mmHg 59%
10:00 +30°C° 0 mm 2 mps 702 mmHg 55%
11:00 +31°C° 0 mm 2 mps 702 mmHg 51%
12:00 +32°C° 0 mm 2 mps 702 mmHg 48%
13:00 +34°C° 0 mm 2 mps 702 mmHg 46%
14:00 +35°C° 0 mm 2 mps 701 mmHg 44%
15:00 +35°C° 0 mm 2 mps 701 mmHg 43%
16:00 +34°C° 0 mm 2 mps 701 mmHg 45%
17:00 +34°C° 0 mm 2 mps 701 mmHg 46%
18:00 +32°C° 0 mm 2 mps 701 mmHg 47%
19:00 +30°C° 0 mm 2 mps 700 mmHg 52%
20:00 +28°C° 0 mm 2 mps 700 mmHg 56%
21:00 +26°C° 0 mm 2 mps 700 mmHg 61%
22:00 +26°C° 0.2 mm 2 mps 700 mmHg 64%
23:00 +25°C° 0.2 mm 2 mps 700 mmHg 67%

Tomorrow, 27 July, Tuesday

Time Temperature Precipitation Wind Pressure Humidity
00:00 +24°C° 0.2 mm 2 mps 701 mmHg 71%
01:00 +24°C° 0.3 mm 2 mps 700 mmHg 75%
02:00 +23°C° 0.3 mm 2 mps 700 mmHg 80%
03:00 +21°C° 0.3 mm 2 mps 700 mmHg 85%
04:00 +21°C° 0.2 mm 2 mps 700 mmHg 83%
05:00 +23°C° 0.2 mm 2 mps 700 mmHg 80%
06:00 +24°C° 0.2 mm 2 mps 700 mmHg 78%
07:00 +26°C° 0.2 mm 2 mps 700 mmHg 70%
08:00 +28°C° 0.2 mm 2 mps 700 mmHg 62%
09:00 +30°C° 0.2 mm 2 mps 699 mmHg 53%
10:00 +31°C° 0.1 mm 2 mps 699 mmHg 49%
11:00 +32°C° 0.1 mm 2 mps 699 mmHg 45%
12:00 +35°C° 0.1 mm 3 mps 699 mmHg 41%
13:00 +35°C° 0.1 mm 3 mps 698 mmHg 40%
14:00 +35°C° 0.1 mm 3 mps 698 mmHg 39%
15:00 +36°C° 0.1 mm 3 mps 697 mmHg 38%
16:00 +35°C° 0.3 mm 3 mps 697 mmHg 41%
17:00 +32°C° 0.3 mm 2 mps 697 mmHg 44%
18:00 +31°C° 0.3 mm 2 mps 697 mmHg 47%
19:00 +29°C° 0.6 mm 2 mps 697 mmHg 56%
20:00 +26°C° 0.6 mm 2 mps 697 mmHg 66%
21:00 +24°C° 0.6 mm 3 mps 698 mmHg 76%
22:00 +23°C° 0.8 mm 2 mps 698 mmHg 80%
23:00 +23°C° 0.8 mm 2 mps 698 mmHg 84%

Day after tomorrow, 28 July, Wednesday

Time Temperature Precipitation Wind Pressure Humidity
00:00 +21°C° 0.8 mm 2 mps 698 mmHg 88%
01:00 +21°C° 1.4 mm 2 mps 698 mmHg 88%
02:00 +20°C° 1.4 mm 3 mps 698 mmHg 88%
03:00 +20°C° 1.4 mm 3 mps 698 mmHg 88%
04:00 +20°C° 0.6 mm 2 mps 698 mmHg 87%
05:00 +20°C° 0.6 mm 2 mps 698 mmHg 86%
06:00 +21°C° 0.6 mm 2 mps 698 mmHg 84%
07:00 +22°C° 0.7 mm 1 mps 699 mmHg 84%
08:00 +22°C° 0.7 mm 1 mps 699 mmHg 83%
09:00 +22°C° 0.7 mm 1 mps 699 mmHg 82%
10:00 +22°C° 1.4 mm 1 mps 699 mmHg 84%
11:00 +22°C° 1.4 mm 1 mps 699 mmHg 87%
12:00 +21°C° 1.4 mm 1 mps 699 mmHg 89%
13:00 +22°C° 0.8 mm 1 mps 699 mmHg 87%
14:00 +21°C° 0.8 mm 2 mps 699 mmHg 85%
15:00 +21°C° 0.8 mm 2 mps 699 mmHg 83%
16:00 +21°C° 0.4 mm 2 mps 699 mmHg 82%
17:00 +21°C° 0.4 mm 2 mps 699 mmHg 82%
18:00 +21°C° 0.4 mm 2 mps 699 mmHg 82%
19:00 +20°C° 0.5 mm 2 mps 699 mmHg 83%
20:00 +20°C° 0.5 mm 2 mps 700 mmHg 85%
21:00 +21°C° 0.5 mm 1 mps 700 mmHg 86%
22:00 +20°C° 0.7 mm 1 mps 700 mmHg 88%
23:00 +20°C° 0.7 mm 1 mps 700 mmHg 90%

29 July, Thursday

Time Temperature Precipitation Wind Pressure Humidity
00:00 +20°C° 0.7 mm 1 mps 700 mmHg 92%
01:00 +20°C° 0.5 mm 1 mps 700 mmHg 92%
02:00 +20°C° 0.5 mm 1 mps 700 mmHg 92%
03:00 +20°C° 0.5 mm 1 mps 700 mmHg 91%
04:00 +20°C° 0.1 mm 1 mps 700 mmHg 92%
05:00 +20°C° 0.1 mm 1 mps 700 mmHg 92%
06:00 +20°C° 0.1 mm 1 mps 701 mmHg 92%
07:00 +20°C° 0.2 mm 1 mps 701 mmHg 91%
08:00 +20°C° 0.2 mm 1 mps 701 mmHg 91%
09:00 +19°C° 0.2 mm 2 mps 701 mmHg 90%
10:00 +21°C° 0.3 mm 1 mps 701 mmHg 88%
11:00 +21°C° 0.3 mm 1 mps 701 mmHg 86%
12:00 +21°C° 0.3 mm 1 mps 701 mmHg 84%
13:00 +22°C° 0 mm 1 mps 701 mmHg 79%
14:00 +22°C° 0 mm 1 mps 701 mmHg 74%
15:00 +23°C° 0 mm 2 mps 701 mmHg 70%
16:00 +23°C° 0 mm 2 mps 701 mmHg 69%
17:00 +23°C° 0 mm 2 mps 701 mmHg 68%
18:00 +24°C° 0 mm 2 mps 700 mmHg 67%
19:00 +23°C° 0 mm 2 mps 700 mmHg 70%
20:00 +22°C° 0 mm 1 mps 701 mmHg 73%
21:00 +20°C° 0 mm 1 mps 701 mmHg 76%
22:00 +21°C° 0 mm 1 mps 700 mmHg 74%
23:00 +21°C° 0 mm 1 mps 700 mmHg 72%

30 July, Friday

Time Temperature Precipitation Wind Pressure Humidity
00:00 +21°C° 0 mm 1 mps 700 mmHg 70%
01:00 +20°C° 0 mm 1 mps 700 mmHg 72%
02:00 +19°C° 0 mm 1 mps 699 mmHg 73%
03:00 +18°C° 0 mm 1 mps 699 mmHg 75%
04:00 +19°C° 0 mm 1 mps 699 mmHg 74%
05:00 +20°C° 0 mm 1 mps 700 mmHg 72%
06:00 +20°C° 0 mm 1 mps 700 mmHg 71%
07:00 +22°C° 0 mm 1 mps 700 mmHg 66%
08:00 +24°C° 0 mm 1 mps 700 mmHg 61%
09:00 +26°C° 0 mm 2 mps 700 mmHg 55%
10:00 +27°C° 0 mm 2 mps 700 mmHg 53%
11:00 +28°C° 0 mm 2 mps 700 mmHg 51%
12:00 +29°C° 0 mm 2 mps 700 mmHg 48%
13:00 +29°C° 0 mm 2 mps 699 mmHg 47%
14:00 +30°C° 0 mm 2 mps 699 mmHg 45%
15:00 +30°C° 0 mm 2 mps 699 mmHg 44%
16:00 +29°C° 0 mm 2 mps 699 mmHg 46%
17:00 +29°C° 0 mm 1 mps 699 mmHg 48%
18:00 +28°C° 0 mm 1 mps 699 mmHg 50%
19:00 +27°C° 0 mm 1 mps 699 mmHg 53%
20:00 +25°C° 0 mm 2 mps 699 mmHg 57%
21:00 +23°C° 0 mm 2 mps 699 mmHg 60%
22:00 +23°C° 0 mm 2 mps 699 mmHg 61%
23:00 +21°C° 0 mm 2 mps 699 mmHg 62%

31 July, Saturday

Time Temperature Precipitation Wind Pressure Humidity
00:00 +21°C° 0 mm 2 mps 699 mmHg 63%
01:00 +20°C° 0 mm 2 mps 699 mmHg 63%
02:00 +20°C° 0 mm 2 mps 699 mmHg 64%
03:00 +20°C° 0 mm 2 mps 698 mmHg 65%
04:00 +21°C° 0 mm 1 mps 699 mmHg 64%
05:00 +22°C° 0 mm 1 mps 699 mmHg 64%
06:00 +22°C° 0 mm 1 mps 699 mmHg 63%
07:00 +24°C° 0 mm 1 mps 699 mmHg 57%
08:00 +26°C° 0 mm 1 mps 699 mmHg 52%
09:00 +28°C° 0 mm 1 mps 699 mmHg 46%
10:00 +29°C° 0 mm 2 mps 699 mmHg 44%
11:00 +30°C° 0 mm 2 mps 699 mmHg 42%
12:00 +31°C° 0 mm 2 mps 699 mmHg 40%
13:00 +31°C° 0 mm 2 mps 698 mmHg 39%
14:00 +32°C° 0 mm 2 mps 698 mmHg 38%
15:00 +32°C° 0 mm 2 mps 698 mmHg 37%
16:00 +31°C° 0 mm 2 mps 698 mmHg 40%
17:00 +31°C° 0 mm 2 mps 698 mmHg 43%
18:00 +30°C° 0 mm 1 mps 698 mmHg 46%
19:00 +28°C° 0 mm 2 mps 698 mmHg 48%
20:00 +27°C° 0 mm 2 mps 698 mmHg 50%
21:00 +25°C° 0 mm 2 mps 698 mmHg 52%
22:00 +25°C° 0 mm 2 mps 698 mmHg 53%
23:00 +25°C° 0 mm 1 mps 698 mmHg 53%
Show more